World > North America > United States > California > Lake Isabella   Lake Isabella Kern River Valley

Lake Isabella, CA Hourly Weather Forecast

Feedback E-mail the Weather

Quick Clicks

Weather World

24 Hour Forecast

Current Conditions - Clear. Temperature is 64°F18°C, dew point 53°F12°C, humidity 67%. Wind direction is N at 0 mph0 km/h with visibility of 10 mi16 km. Barometric pressure is 29.93 in1014 mb.
Today - Mostly sunny. Highs 61 to 71. Northwest winds 5 to 20 mph with gusts to around 40 mph... Full Forecast
Tonight - Mostly clear. Lows 46 to 54. Northwest winds 5 to 20 mph with gusts to around 40 mph... Full Forecast

Lake Isabella Hourly Weather

24 Hour Weather Scroll
Fri, Apr 19
8:00 am
Fri, Apr 19
9:00 am
Fri, Apr 19
10:00 am
Fri, Apr 19
11:00 am
Fri, Apr 19
Noon
Fri, Apr 19
1:00 pm
Fri, Apr 19
2:00 pm
Fri, Apr 19
3:00 pm
Fri, Apr 19
4:00 pm
Fri, Apr 19
5:00 pm
Fri, Apr 19
6:00 pm
Fri, Apr 19
7:00 pm
Fri, Apr 19
8:00 pm
Fri, Apr 19
9:00 pm
Fri, Apr 19
10:00 pm
Fri, Apr 19
11:00 pm
Sat, Apr 20
Midnight
Sat, Apr 20
1:00 am
Sat, Apr 20
2:00 am
Sat, Apr 20
3:00 am
Sat, Apr 20
4:00 am
Sat, Apr 20
5:00 am
Sat, Apr 20
6:00 am
Sat, Apr 20
7:00 am
Partly CloudySunnySunnySunnySunnySunnySunnySunnyPatchy Rain NearbySunnyPatchy Rain NearbySunnyClear Clear Clear Clear Clear Clear Clear Clear Clear Clear Clear Sunny
Partly Cloudy Sunny Sunny Sunny Sunny Sunny Sunny Sunny Patchy Rain Nearby Sunny Patchy Rain Nearby Sunny Clear Clear Clear Clear Clear Clear Clear Clear Clear Clear Clear Sunny
57°F14°C 63°F17°C 63°F17°C 58°F14°C 56°F13°C 55°F13°C 54°F12°C 53°F12°C 52°F11°C 51°F10°C 48°F9°C 45°F7°C 44°F7°C 42°F6°C 42°F6°C 48°F9°C 51°F11°C 53°F11°C 53°F12°C 53°F12°C 53°F12°C 53°F12°C 54°F12°C 57°F14°C
47°F
8°C
47°F
8°C
45°F
7°C
39°F
4°C
29°F
-2°C
30°F
-1°C
31°F
-1°C
32°F
-0°C
31°F
-0°C
32°F
-0°C
32°F
0°C
34°F
1°C
35°F
1°C
36°F
2°C
36°F
2°C
37°F
3°C
48°F
9°C
49°F
9°C
48°F
9°C
47°F
8°C
46°F
8°C
45°F
7°C
44°F
7°C
44°F
7°C
30.03 in
1017 mb
29.91 in
1013 mb
29.91 in
1013 mb
29.88 in
1012 mb
29.88 in
1012 mb
29.85 in
1011 mb
29.85 in
1011 mb
29.85 in
1011 mb
29.85 in
1011 mb
29.85 in
1011 mb
29.85 in
1011 mb
29.88 in
1012 mb
29.91 in
1013 mb
29.94 in
1014 mb
29.97 in
1015 mb
29.97 in
1015 mb
29.97 in
1015 mb
29.97 in
1015 mb
29.97 in
1015 mb
29.97 in
1015 mb
29.97 in
1015 mb
29.97 in
1015 mb
30 in
1016 mb
30 in
1016 mb
82%56%47%41%39%39%41%42%44%47%51%62%74%79%81%82%82%81%79%77%76%74%73%68%
NWWNWWWWWWWWWWWWNWNWNWNWNWNWNNWNWNWNWNNWNW
11 mph
17 km/h
6 mph
10 km/h
6 mph
10 km/h
7 mph
12 km/h
8 mph
13 km/h
9 mph
14 km/h
9 mph
15 km/h
9 mph
15 km/h
9 mph
15 km/h
9 mph
14 km/h
8 mph
13 km/h
6 mph
10 km/h
5 mph
9 km/h
5 mph
8 km/h
5 mph
8 km/h
5 mph
8 km/h
4 mph
7 km/h
5 mph
8 km/h
4 mph
7 km/h
4 mph
6 km/h
4 mph
6 km/h
4 mph
6 km/h
4 mph
6 km/h
4 mph
6 km/h
0%0%0%0%0%0%0%0%89%0%68%0%0%0%0%0%0%0%0%0%0%0%0%0%
7 mi
11 km
6 mi
10 km
6 mi
10 km
6 mi
10 km
6 mi
10 km
6 mi
10 km
6 mi
10 km
6 mi
10 km
6 mi
10 km
6 mi
10 km
6 mi
10 km
6 mi
10 km
6 mi
10 km
6 mi
10 km
6 mi
10 km
6 mi
10 km
6 mi
10 km
6 mi
10 km
6 mi
10 km
6 mi
10 km
6 mi
10 km
6 mi
10 km
6 mi
10 km
6 mi
10 km

Day/Time
Weather
Condition
Temperature
Dew Point
Pressure
Humidity
Wind Direction
Wind Speed
Prob Precip %
Visibility
POP = Probability of Precipitation. ** Indicates missing data/values from KBFL model statistics.

Trending Headlines

Trending Entertainment Headlines

Lake Isabella Radar Loop

Use the map search tool if you want to place a location marker on the radar map...

48 Hour API Forecast

Prob Precip % = Probability of Precipitation.

Lake Isabella 36 Hour Forecast

POP = Probability of Precipitation. ** Indicates missing data/values from model statistics.

E-mail the Lake Isabella Weather Forecast

Voice your opinion or tell us about page issues...

Lake Isabella CA Weather - 11:37 am

What are people saying?

Contact Us